SM4TUV Weather Reports


Display with metric or nautical units.
time (UTC)temp
F
wind
direction
speed
MPH
gust
MPH
rain 1hr
in
rain 24hr
in
rain mn
in
humidity
%
barometer
mb
20260502230831 42 46 13.0 13.0 0.00 0.00 0.00 72 976.9
20260502225931 43 62 14.0 21.0 0.00 0.00 0.00 71 976.9
20260502225031 43 59 13.0 19.0 0.00 0.00 0.00 71 976.4
20260502224131 44 45 13.0 20.0 0.00 0.00 0.00 71 976.5
20260502223231 44 63 17.0 24.0 0.00 0.00 0.00 71 976.4
20260502222331 45 62 14.0 24.0 0.00 0.00 0.00 71 976.3
20260502221431 46 55 13.0 17.0 0.00 0.00 0.00 71 976.3
20260502220531 46 47 16.0 22.0 0.00 0.00 0.00 70 976.2
20260502215632 47 34 18.0 23.0 0.00 0.00 0.00 70 976.1
20260502214731 47 38 18.0 22.0 0.00 0.00 0.00 71 975.9
20260502213831 49 47 18.0 21.0 0.00 0.00 0.00 71 975.8
20260502212931 49 23 14.0 21.0 0.00 0.00 0.00 70 975.6
20260502211131 49 343 3.0 5.0 0.00 0.00 0.00 71 975.4
20260502210231 50 196 2.0 3.0 0.00 0.00 0.00 71 975.1
20260502205331 50 223 3.0 4.0 0.00 0.00 0.00 70 975.0
20260502204431 50 260 3.0 4.0 0.00 0.00 0.00 70 975.0
20260502203531 50 211 4.0 5.0 0.00 0.00 0.00 70 974.8
20260502202632 50 191 4.0 5.0 0.00 0.00 0.00 70 974.8
20260502200831 50 224 2.0 4.0 0.00 0.00 0.00 70 974.9
20260502195931 50 240 3.0 6.0 0.00 0.00 0.00 69 974.9
20260502195031 50 222 4.0 6.0 0.00 0.00 0.00 69 974.8
20260502194131 50 232 5.0 7.0 0.00 0.00 0.00 68 974.8
20260502193231 51 231 5.0 7.0 0.00 0.00 0.00 68 974.7
20260502191431 51 212 5.0 9.0 0.00 0.00 0.00 67 974.8
20260502190531 51 220 6.0 9.0 0.00 0.00 0.00 67 974.7
20260502185632 51 202 7.0 12.0 0.00 0.00 0.00 66 974.7
20260502183831 52 206 6.0 9.0 0.00 0.00 0.00 65 974.7
20260502182931 52 219 6.0 8.0 0.00 0.00 0.00 66 974.9
20260502182031 52 224 7.0 8.0 0.00 0.00 0.00 65 975.0
20260502181131 53 233 8.0 11.0 0.00 0.00 0.00 64 975.0
20260502180231 54 233 6.0 8.0 0.00 0.00 0.00 58 975.0
20260502164131 57 301 7.0 11.0 0.00 0.00 0.00 49 974.6
20260502163231 57 306 9.0 13.0 0.00 0.00 0.00 48 974.7
20260502162331 58 301 10.0 15.0 0.00 0.00 0.00 47 974.9
20260502161431 58 280 9.0 12.0 0.00 0.00 0.00 47 974.8
20260502160531 58 204 8.0 9.0 0.00 0.00 0.00 45 974.9
20260502152031 58 324 11.0 15.0 0.00 0.00 0.00 44 975.2
20260502151131 59 294 7.0 8.0 0.00 0.00 0.00 43 975.1
20260502150231 60 308 7.0 9.0 0.00 0.00 0.00 40 975.1
20260502130531 63 316 10.0 16.0 0.00 0.00 0.00 33 975.2
20260502122931 64 316 9.0 12.0 0.00 0.00 0.00 32 975.2
20260502122031 64 305 11.0 16.0 0.00 0.00 0.00 32 975.2
20260502121131 66 299 5.0 11.0 0.00 0.00 0.00 29 975.3
20260502120231 66 276 4.0 7.0 0.00 0.00 0.00 32 975.3
20260502115331 66 276 7.0 9.0 0.00 0.00 0.00 29 975.4
20260502113531 68 275 8.0 10.0 0.00 0.00 0.00 29 975.4
20260502112632 67 302 8.0 12.0 0.00 0.00 0.00 31 975.7
20260502111731 65 297 7.0 10.0 0.00 0.00 0.00 33 975.8
20260502110831 65 335 8.0 9.0 0.00 0.00 0.00 34 975.9
20260502105931 64 278 8.0 12.0 0.00 0.00 0.00 34 975.9
20260502104132 66 262 9.0 11.0 0.00 0.00 0.00 32 975.9
20260502103231 67 224 11.0 18.0 0.00 0.00 0.00 31 975.9
20260502102331 66 259 9.0 14.0 0.00 0.00 0.00 31 976.1
20260502101431 65 253 7.0 11.0 0.00 0.00 0.00 33 976.2
20260502100531 64 207 9.0 11.0 0.00 0.00 0.00 31 976.0
20260502091131 64 237 8.0 11.0 0.00 0.00 0.00 33 976.6
20260502090231 64 267 8.0 13.0 0.00 0.00 0.00 35 976.6
20260502070531 60 201 8.0 11.0 0.00 0.00 0.00 45 977.6
20260502065632 59 231 8.0 11.0 0.00 0.00 0.00 45 977.5
20260502064731 59 254 6.0 9.0 0.00 0.00 0.00 46 977.7
20260502063831 58 216 6.0 11.0 0.00 0.00 0.00 47 977.9
20260502062931 58 214 7.0 11.0 0.00 0.00 0.00 49 977.9
20260502062031 58 253 6.0 11.0 0.00 0.00 0.00 48 978.0
20260502061131 56 238 7.0 11.0 0.00 0.00 0.00 50 977.9
20260502060231 56 221 9.0 11.0 0.00 0.00 0.00 51 978.1
20260502054431 55 242 8.0 12.0 0.00 0.00 0.00 52 978.0
20260502053531 55 248 8.0 11.0 0.00 0.00 0.00 52 978.1
20260502052632 54 247 7.0 12.0 0.00 0.00 0.00 53 978.0
20260502050831 53 218 8.0 11.0 0.00 0.00 0.00 54 978.0
20260502045931 53 227 9.0 12.0 0.00 0.00 0.00 55 978.1
20260502045032 53 235 8.0 11.0 0.00 0.00 0.00 55 978.2
20260502044132 53 216 7.0 11.0 0.00 0.00 0.00 55 978.1
20260502041432 51 230 6.0 10.0 0.00 0.00 0.00 58 978.2
20260502040531 51 243 6.0 7.0 0.00 0.00 0.00 60 978.3
20260502035632 50 219 6.0 8.0 0.00 0.00 0.00 60 978.4
20260502034731 50 227 7.0 8.0 0.00 0.00 0.00 61 978.5
20260502033832 49 209 6.0 8.0 0.00 0.00 0.00 63 978.5
20260502032931 48 226 6.0 8.0 0.00 0.00 0.00 63 978.6
20260502031131 48 225 7.0 10.0 0.00 0.00 0.00 64 978.7
20260502030233 48 255 6.0 11.0 0.00 0.00 0.00 64 978.8
20260502025332 48 223 8.0 11.0 0.00 0.00 0.00 64 978.9
20260502024431 48 233 6.0 8.0 0.00 0.00 0.00 63 978.9
20260502023531 49 232 8.0 10.0 0.00 0.00 0.00 63 978.9
20260502022632 49 234 8.0 10.0 0.00 0.00 0.00 62 979.1
20260502021732 49 250 6.0 11.0 0.00 0.00 0.00 61 979.0
20260502015931 50 219 10.0 12.0 0.00 0.00 0.00 60 979.1
20260502015031 50 225 8.0 11.0 0.00 0.00 0.00 60 979.1
20260502014132 50 233 8.0 10.0 0.00 0.00 0.00 60 979.3
20260502013232 51 253 7.0 10.0 0.00 0.00 0.00 59 979.4
20260502012331 51 235 9.0 10.0 0.00 0.00 0.00 58 979.7
20260502011431 51 230 8.0 10.0 0.00 0.00 0.00 58 979.9
20260502010532 52 230 8.0 10.0 0.00 0.00 0.00 56 979.9
20260502005633 52 227 8.0 11.0 0.00 0.00 0.00 56 980.1
20260502004732 52 239 9.0 12.0 0.00 0.00 0.00 55 980.0
20260502003831 53 232 10.0 13.0 0.00 0.00 0.00 55 980.0
20260502002032 53 197 9.0 13.0 0.00 0.00 0.00 54 980.1
20260502000233 53 215 11.0 14.0 0.00 0.00 0.00 53 980.2
20260501235332 53 221 10.0 14.0 0.00 0.00 0.00 53 980.3
20260501234431 54 221 9.0 14.0 0.00 0.00 0.00 53 980.4
20260501232632 54 220 10.0 14.0 0.00 0.00 0.00 52 980.5